Regional Weather Roundup
Issued by NWS Bismarck, ND

Home | Current Version | Previous Version | Text Only | Print | Product List | Glossary On
Versions: 1 2 3 4 5 6 7 8 9 10 11 12 13 14 15 16 17 18 19 20 21 22 23 24 25 26 27 28 29 30 31 32 33 34 35 36 37 38 39 40 41 42 43 44 45 46 47 48 49 50
000
ASUS43 KBIS 221320
RWRBIS

NWR BROADCAST TEXT
NATIONAL WEATHER SERVICE BISMARCK ND
700 AM CST MON DEC 22 2014

NOTE: "FAIR" INDICATES FEW OR NO CLOUDS BELOW 12,000 FEET WITH NO
SIGNIFICANT WEATHER AND/OR OBSTRUCTIONS TO VISIBILITY.


CITY           SKY/WX    TMP DP  RH WIND       PRES   REMARKS
WILLISTON      CLOUDY    28  24  85 NW16      29.52R WCI  16
MINOT          CLOUDY    28  26  92 N5        29.47R FOG
MINOT AFB      FRZ DRZL  28  28 100 E5        29.48R FOG
BISMARCK       FOG       28  28 100 E3        29.46R VSB 1/4
DICKINSON      LGT SNOW  31  27  85 NW22      29.45R FOG     WCI  18
GARRISON         N/A     28  27  96 E3        29.45R
HETTINGER ARPT CLOUDY    33  31  92 NW17G28   29.47R
JAMESTOWN      FOG       32  32 100 NE7       29.44S VSB 1/2
BEACH          MIX PCPN  32  32 100 NW18G28   29.52R
CARRINGTON     CLOUDY    32  32 100 MISG      29.48R FOG
CROSBY         FOG       28  28 100 N9        29.51R VSB 1/2 WCI  20
HARVEY         CLOUDY    28  28 100 CALM      29.48R FOG
HAZEN          FOG       28  28 100 N3        29.46R VSB 1
LINTON         FOG       27  27 100 N3        29.43S VSB 1/2
MANDAN         HVY SNOW  27  27 100 E3        29.45R VSB 1/4
OAKES            N/A     32  32 100 E10       29.43F FOG
RUGBY          CLOUDY    28  28 100 E7        29.50R
STANLEY        FOG       27  27 100 CALM      29.45R VSB<1/4
TIOGA          CLOUDY    27  27 100 NW10      29.49R FOG     WCI  17
WATFORD CITY   LGT SNOW  27  27 100 W13       29.49R WCI  16
$$

CITY           SKY/WX    TMP DP  RH WIND       PRES   REMARKS
GRAND FORKS    DRIZZLE   34  34 100 E8        29.53R FOG
GRAND FORKS AF CLOUDY    34  34 100 E7        29.53R FOG
DEVILS LAKE    CLOUDY    30  25  80 E9        29.48S
FARGO          CLOUDY    38  36  92 SE12      29.49S FOG
CANDO          CLOUDY    30  30 100 E3        29.51R FOG
CAVALIER       CLOUDY    32  32 100 E7        29.56R FOG
GWINNER        CLOUDY    36  36 100 SE9       29.46S VSB 1/4
LANGDON        FOG       32  32 100 E7        29.51S VSB 1/2
ROLLA          CLOUDY    28  28 100 E5        29.52R FOG
WALHALLA       MIX PCPN  32  32 100 E5        29.56S
$$

CITY           SKY/WX    TMP DP  RH WIND       PRES   REMARKS
ABERDEEN       FOG       33  32  96 S6        29.43R VSB 1/4
MOBRIDGE       CLOUDY    31  29  92 CALM      29.41R FOG
BUFFALO          N/A     36  28  73 NW25G35   29.45R
RAPID CITY     MOCLDY    42  22  44 NW36G45   29.53R
GLASGOW        CLOUDY    32  26  78 NW22      29.61R WCI  19
SIDNEY         CLOUDY    27  23  86 NW15      29.57R WCI  15
WOLF POINT     LGT SNOW  30  25  81 NW15      29.60R WCI  19
GLENDIVE       CLOUDY    30  27  86 NW17G23   29.57R WCI  18
MILES CITY     PTCLDY    36  26  67 NW18      29.61R
BAKER          CLOUDY    34  32  92 NW25G35   29.53S
$$

CITY           SKY/WX    TMP DP  RH WIND       PRES   REMARKS
BILLINGS       PTCLDY    34  26  72 W14       29.74R
GREAT FALLS    CLOUDY    34  27  75 NW10      29.77R
REGINA         FOG       23  23 100 NW13      29.58R VSB 5/8 WCI  11
ESTEVAN        FOG       28  27  93 NE6       29.50R VSB 1/4
$$



USA.gov is the U.S. government's official web portal to all federal, state and local government web resources and services.